Radiation Dose at Monitoring Post of Fukushima Daini Nuclear Power Station
Date,Time,MP-1(microSv/h),MP-2(microSv/h),MP-3(microSv/h),MP-4(microSv/h),MP-5(microSv/h),MP-6(microSv/h),MP-7(microSv/h),Wind Direction,Wind Velocity(m/s),Rain
2021/12/08,00:00,0.161,0.147,0.224,0.219,0.227,0.128,0.084,north-northwest,10.3,Yes
2021/12/08,00:10,0.161,0.148,0.222,0.220,0.228,0.128,0.085,northwest,10.6,Yes
2021/12/08,00:20,0.162,0.147,0.224,0.219,0.227,0.128,0.085,north-northwest,9.2,Yes
2021/12/08,00:30,0.160,0.148,0.224,0.219,0.227,0.128,0.086,north-northwest,10.6,Yes
2021/12/08,00:40,0.162,0.148,0.222,0.218,0.228,0.129,0.086,north-northwest,9.3,Yes
2021/12/08,00:50,0.163,0.149,0.223,0.217,0.229,0.129,0.087,north-northwest,9.0,Yes
2021/12/08,01:00,0.163,0.149,0.223,0.220,0.229,0.129,0.087,north-northwest,8.4,Yes
2021/12/08,01:10,0.162,0.150,0.223,0.218,0.230,0.129,0.087,north-northwest,8.4,Yes
2021/12/08,01:20,0.162,0.150,0.223,0.218,0.229,0.129,0.088,north-northwest,9.5,Yes
2021/12/08,01:30,0.161,0.149,0.223,0.220,0.228,0.129,0.089,north-northwest,9.3,Yes
2021/12/08,01:40,0.161,0.149,0.223,0.218,0.229,0.130,0.088,north-northwest,7.9,Yes
2021/12/08,01:50,0.162,0.151,0.222,0.218,0.229,0.129,0.088,north-northwest,7.8,Yes
2021/12/08,02:00,0.162,0.150,0.223,0.220,0.228,0.130,0.088,north-northwest,9.0,Yes
2021/12/08,02:10,0.161,0.150,0.224,0.221,0.230,0.127,0.088,north-northwest,8.4,Yes
2021/12/08,02:20,0.160,0.149,0.223,0.219,0.228,0.128,0.087,north-northwest,9.5,Yes
2021/12/08,02:30,0.159,0.148,0.222,0.219,0.228,0.128,0.087,northwest,9.8,Yes
2021/12/08,02:40,0.158,0.148,0.223,0.219,0.229,0.128,0.087,north-northwest,10.1,Yes
2021/12/08,02:50,0.159,0.147,0.222,0.218,0.227,0.127,0.087,north-northwest,11.7,Yes
2021/12/08,03:00,0.159,0.149,0.222,0.218,0.228,0.127,0.086,north-northwest,12.2,Yes
2021/12/08,03:10,0.158,0.148,0.221,0.218,0.228,0.127,0.086,northwest,10.0,Yes
2021/12/08,03:20,0.158,0.148,0.223,0.218,0.228,0.127,0.087,northwest,9.6,Yes
2021/12/08,03:30,0.159,0.147,0.223,0.218,0.227,0.127,0.087,northwest,9.0,Yes
2021/12/08,03:40,0.159,0.147,0.222,0.218,0.227,0.127,0.087,north-northwest,10.4,Yes
2021/12/08,03:50,0.157,0.148,0.222,0.219,0.226,0.127,0.087,north-northwest,11.2,Yes
2021/12/08,04:00,0.158,0.147,0.222,0.218,0.227,0.127,0.086,north-northwest,10.6,Yes
2021/12/08,04:10,0.158,0.147,0.221,0.218,0.227,0.125,0.085,north-northwest,10.4,Yes
2021/12/08,04:20,0.157,0.146,0.221,0.219,0.225,0.125,0.084,north-northwest,9.8,Yes
2021/12/08,04:30,0.157,0.145,0.220,0.217,0.225,0.125,0.083,north-northwest,9.2,Yes
2021/12/08,04:40,0.156,0.145,0.221,0.217,0.226,0.124,0.082,north-northwest,8.4,Yes
2021/12/08,04:50,0.155,0.145,0.220,0.217,0.226,0.124,0.083,north-northwest,10.6,Yes
2021/12/08,05:00,0.157,0.144,0.220,0.217,0.223,0.122,0.082,north-northwest,12.2,Yes
2021/12/08,05:10,0.156,0.144,0.220,0.217,0.226,0.124,0.081,north-northwest,10.6,Yes
2021/12/08,05:20,0.156,0.144,0.221,0.216,0.224,0.123,0.082,north-northwest,10.9,Yes
2021/12/08,05:30,0.156,0.144,0.220,0.216,0.224,0.123,0.082,northwest,11.7,Yes
2021/12/08,05:40,0.156,0.143,0.219,0.216,0.225,0.122,0.081,north-northwest,10.6,Yes
2021/12/08,05:50,0.156,0.145,0.221,0.216,0.224,0.123,0.081,north-northwest,11.4,Yes
2021/12/08,06:00,0.157,0.145,0.220,0.215,0.225,0.123,0.082,north-northwest,12.0,Yes
2021/12/08,06:10,0.156,0.144,0.220,0.215,0.223,0.123,0.082,north-northwest,11.4,Yes
2021/12/08,06:20,0.156,0.144,0.219,0.215,0.225,0.123,0.081,north-northwest,11.2,Yes
2021/12/08,06:30,0.157,0.145,0.220,0.217,0.224,0.122,0.081,north-northwest,10.4,Yes
2021/12/08,06:40,0.157,0.145,0.222,0.216,0.226,0.124,0.082,north-northwest,9.0,Yes
2021/12/08,06:50,0.157,0.146,0.219,0.217,0.225,0.124,0.082,north-northwest,10.6,Yes
2021/12/08,07:00,0.158,0.146,0.220,0.216,0.226,0.124,0.083,north-northwest,10.9,Yes
2021/12/08,07:10,0.157,0.148,0.222,0.217,0.227,0.124,0.084,north-northwest,11.7,Yes
2021/12/08,07:20,0.158,0.145,0.221,0.218,0.226,0.125,0.084,northwest,10.6,Yes
2021/12/08,07:30,0.158,0.147,0.220,0.216,0.226,0.125,0.084,north-northwest,9.5,Yes
2021/12/08,07:40,0.158,0.145,0.220,0.216,0.227,0.126,0.085,north-northwest,11.4,Yes
2021/12/08,07:50,0.158,0.147,0.221,0.216,0.227,0.125,0.086,north-northwest,11.7,Yes
2021/12/08,08:00,0.157,0.147,0.221,0.216,0.227,0.126,0.085,north-northwest,12.0,Yes
2021/12/08,08:10,0.157,0.148,0.220,0.216,0.228,0.127,0.086,north-northwest,11.1,Yes
2021/12/08,08:20,0.158,0.149,0.221,0.217,0.226,0.126,0.086,north-northwest,11.7,Yes
2021/12/08,08:30,0.156,0.148,0.220,0.215,0.227,0.125,0.085,northwest,10.3,Yes
2021/12/08,08:40,0.157,0.147,0.221,0.215,0.227,0.126,0.086,northwest,10.1,Yes
2021/12/08,08:50,0.157,0.148,0.220,0.215,0.226,0.125,0.086,north-northwest,9.0,Yes
2021/12/08,09:00,0.155,0.148,0.219,0.216,0.226,0.126,0.087,north-northwest,12.6,Yes
2021/12/08,09:10,0.157,0.147,0.220,0.215,0.227,0.128,0.087,north-northwest,11.7,Yes
2021/12/08,09:20,0.157,0.148,0.221,0.216,0.226,0.127,0.087,northwest,9.0,Yes
2021/12/08,09:30,0.157,0.148,0.221,0.216,0.226,0.126,0.088,-,CALM,Yes
2021/12/08,09:40,0.156,0.148,0.219,0.217,0.226,0.127,0.088,north-northwest,10.6,Yes
2021/12/08,09:50,0.155,0.149,0.220,0.215,0.226,0.127,0.089,north,9.8,Yes
2021/12/08,10:00,0.157,0.149,0.219,0.216,0.227,0.128,0.090,north,10.6,Yes
2021/12/08,10:10,0.157,0.151,0.220,0.217,0.227,0.128,0.089,north-northwest,10.9,Yes
2021/12/08,10:20,0.158,0.151,0.220,0.218,0.229,0.128,0.090,north-northwest,7.5,Yes
2021/12/08,10:30,0.156,0.151,0.221,0.217,0.228,0.128,0.089,north-northwest,10.1,Yes
2021/12/08,10:40,0.157,0.151,0.221,0.218,0.229,0.127,0.089,north-northwest,10.7,Yes
2021/12/08,10:50,0.159,0.151,0.222,0.218,0.229,0.129,0.090,north-northwest,10.0,Yes
2021/12/08,11:00,0.158,0.152,0.221,0.218,0.228,0.128,0.090,north-northwest,8.1,Yes
2021/12/08,11:10,0.158,0.152,0.222,0.219,0.230,0.130,0.091,north-northwest,7.3,Yes
2021/12/08,11:20,0.160,0.154,0.222,0.220,0.231,0.131,0.093,-,CALM,Yes
2021/12/08,11:30,0.162,0.156,0.223,0.222,0.232,0.133,0.094,-,CALM,Yes
2021/12/08,11:40,0.163,0.156,0.222,0.223,0.233,0.133,0.094,north-northwest,9.0,Yes
2021/12/08,11:50,0.162,0.157,0.222,0.223,0.232,0.134,0.095,north-northwest,8.1,Yes
2021/12/08,12:00,0.162,0.157,0.224,0.222,0.232,0.133,0.095,north-northwest,9.2,Yes
2021/12/08,12:10,0.162,0.156,0.223,0.223,0.232,0.133,0.095,north-northwest,10.7,Yes
2021/12/08,12:20,0.161,0.155,0.222,0.223,0.233,0.131,0.094,north-northwest,7.9,Yes
2021/12/08,12:30,0.162,0.154,0.223,0.223,0.232,0.131,0.094,northwest,7.3,Yes
2021/12/08,12:40,0.161,0.155,0.223,0.221,0.232,0.131,0.094,northwest,7.9,Yes
2021/12/08,12:50,0.161,0.154,0.222,0.221,0.230,0.131,0.094,north,7.9,Yes
2021/12/08,13:00,0.161,0.155,0.222,0.223,0.231,0.131,0.094,north-northwest,9.2,Yes
2021/12/08,13:10,0.161,0.155,0.223,0.223,0.233,0.131,0.095,north-northwest,10.0,Yes
2021/12/08,13:20,0.162,0.157,0.225,0.223,0.232,0.133,0.096,north-northwest,7.8,Yes
2021/12/08,13:30,0.163,0.156,0.224,0.224,0.233,0.134,0.097,north-northwest,9.0,Yes
2021/12/08,13:40,0.163,0.156,0.224,0.224,0.234,0.135,0.097,north-northeast,12.8,Yes
2021/12/08,13:50,0.161,0.155,0.224,0.222,0.233,0.133,0.095,north,14.0,Yes
2021/12/08,14:00,0.161,0.153,0.223,0.223,0.233,0.133,0.095,north,12.8,Yes
2021/12/08,14:10,0.160,0.153,0.223,0.222,0.231,0.130,0.093,north,11.4,Yes
2021/12/08,14:20,0.159,0.153,0.221,0.220,0.230,0.130,0.091,north,9.2,Yes
2021/12/08,14:30,0.159,0.151,0.221,0.220,0.230,0.129,0.089,north-northwest,10.7,Yes
2021/12/08,14:40,0.158,0.149,0.219,0.220,0.228,0.127,0.089,north,13.6,Yes
2021/12/08,14:50,0.157,0.149,0.219,0.218,0.228,0.126,0.087,north,9.5,Yes
2021/12/08,15:00,0.157,0.149,0.219,0.218,0.228,0.127,0.087,north,10.6,Yes
2021/12/08,15:10,0.156,0.149,0.220,0.219,0.227,0.126,0.088,north-northwest,9.6,Yes
2021/12/08,15:20,0.158,0.149,0.220,0.220,0.228,0.125,0.089,north-northwest,8.1,Yes
2021/12/08,15:30,0.157,0.150,0.218,0.217,0.227,0.126,0.088,north-northwest,8.2,Yes
2021/12/08,15:40,0.156,0.149,0.219,0.217,0.228,0.125,0.088,north-northwest,9.0,Yes
2021/12/08,15:50,0.156,0.149,0.219,0.218,0.228,0.126,0.088,north,11.2,Yes
2021/12/08,16:00,0.157,0.149,0.219,0.218,0.228,0.127,0.087,northwest,9.0,Yes
2021/12/08,16:10,0.158,0.151,0.220,0.220,0.229,0.127,0.089,north-northwest,9.2,Yes
2021/12/08,16:20,0.158,0.151,0.221,0.219,0.229,0.128,0.089,north-northwest,10.3,Yes
2021/12/08,16:30,0.159,0.151,0.220,0.219,0.229,0.127,0.089,north-northwest,9.2,Yes
2021/12/08,16:40,0.158,0.151,0.221,0.219,0.230,0.127,0.089,north-northwest,10.3,Yes
2021/12/08,16:50,0.159,0.151,0.222,0.220,0.229,0.128,0.090,north-northwest,11.4,Yes
2021/12/08,17:00,0.159,0.150,0.221,0.219,0.229,0.127,0.089,northwest,10.6,Yes
2021/12/08,17:10,0.159,0.150,0.220,0.220,0.229,0.128,0.090,northwest,10.6,Yes
2021/12/08,17:20,0.158,0.150,0.220,0.220,0.229,0.128,0.089,north-northwest,9.6,Yes
2021/12/08,17:30,0.159,0.150,0.222,0.219,0.229,0.128,0.090,north-northwest,9.2,Yes
2021/12/08,17:40,0.159,0.150,0.221,0.219,0.228,0.127,0.089,northwest,9.8,Yes
2021/12/08,17:50,0.158,0.150,0.219,0.219,0.229,0.127,0.088,north-northwest,9.5,Yes
2021/12/08,18:00,0.159,0.148,0.220,0.219,0.227,0.127,0.087,north-northwest,10.7,Yes
2021/12/08,18:10,0.158,0.148,0.220,0.217,0.227,0.126,0.087,northwest,10.6,Yes
2021/12/08,18:20,0.158,0.147,0.219,0.216,0.227,0.124,0.086,north-northwest,10.6,Yes
2021/12/08,18:30,0.156,0.147,0.219,0.218,0.226,0.123,0.084,north-northwest,10.3,Yes
2021/12/08,18:40,0.156,0.146,0.218,0.217,0.226,0.124,0.084,north-northwest,10.4,Yes
2021/12/08,18:50,0.157,0.145,0.218,0.217,0.225,0.123,0.085,northwest,10.7,Yes
2021/12/08,19:00,0.156,0.146,0.218,0.216,0.226,0.125,0.085,north-northwest,11.1,Yes
2021/12/08,19:10,0.156,0.146,0.218,0.217,0.226,0.124,0.084,northwest,10.7,Yes
2021/12/08,19:20,0.156,0.146,0.218,0.216,0.225,0.124,0.085,north-northwest,10.4,Yes
2021/12/08,19:30,0.156,0.147,0.217,0.216,0.227,0.124,0.084,north-northwest,11.1,Yes
2021/12/08,19:40,0.156,0.148,0.218,0.217,0.227,0.123,0.086,north-northwest,10.6,Yes
2021/12/08,19:50,0.157,0.146,0.219,0.217,0.225,0.123,0.085,north-northwest,11.2,Yes
2021/12/08,20:00,0.156,0.146,0.218,0.216,0.225,0.124,0.085,north-northwest,9.8,Yes
2021/12/08,20:10,0.156,0.146,0.218,0.216,0.226,0.123,0.084,north-northwest,10.6,Yes
2021/12/08,20:20,0.156,0.145,0.219,0.215,0.226,0.123,0.083,north-northwest,10.4,Yes
2021/12/08,20:30,0.156,0.146,0.219,0.217,0.225,0.123,0.084,north-northwest,11.4,Yes
2021/12/08,20:40,0.155,0.144,0.218,0.217,0.224,0.122,0.083,northwest,11.4,Yes
2021/12/08,20:50,0.156,0.144,0.217,0.216,0.223,0.123,0.083,north-northwest,10.9,Yes
2021/12/08,21:00,0.155,0.146,0.218,0.216,0.225,0.122,0.084,northwest,11.8,Yes
2021/12/08,21:10,0.155,0.144,0.218,0.216,0.225,0.122,0.082,north-northwest,10.4,Yes
2021/12/08,21:20,0.156,0.144,0.217,0.216,0.225,0.121,0.082,north-northwest,10.7,Yes
2021/12/08,21:30,0.156,0.145,0.217,0.216,0.225,0.122,0.083,north-northwest,10.4,Yes
2021/12/08,21:40,0.154,0.144,0.217,0.216,0.223,0.122,0.082,northwest,10.4,Yes
2021/12/08,21:50,0.156,0.144,0.216,0.215,0.224,0.121,0.082,north-northwest,11.4,Yes
2021/12/08,22:00,0.155,0.143,0.217,0.215,0.224,0.121,0.082,northwest,11.2,Yes
2021/12/08,22:10,0.154,0.144,0.217,0.216,0.223,0.121,0.081,northwest,10.4,Yes
2021/12/08,22:20,0.154,0.143,0.217,0.214,0.223,0.120,0.080,northwest,11.2,Yes
2021/12/08,22:30,0.154,0.143,0.217,0.215,0.224,0.120,0.081,north-northwest,10.7,Yes
2021/12/08,22:40,0.155,0.143,0.217,0.216,0.223,0.122,0.081,north-northwest,9.8,Yes
2021/12/08,22:50,0.156,0.144,0.218,0.217,0.225,0.122,0.082,north-northwest,11.2,Yes
2021/12/08,23:00,0.156,0.145,0.218,0.215,0.224,0.121,0.082,north-northwest,11.4,Yes
2021/12/08,23:10,0.156,0.144,0.218,0.216,0.226,0.121,0.083,north-northwest,10.7,Yes
2021/12/08,23:20,0.156,0.143,0.219,0.216,0.224,0.122,0.082,northwest,9.2,Yes
2021/12/08,23:30,0.155,0.144,0.217,0.217,0.222,0.121,0.081,northwest,10.7,Yes
2021/12/08,23:40,0.155,0.143,0.216,0.215,0.224,0.121,0.081,north-northwest,10.7,Yes
2021/12/08,23:50,0.156,0.145,0.219,0.216,0.224,0.123,0.083,north-northwest,10.6,Yes
